Simultaneous Nadir Overpasses (SNOs) Predictions

Prediction of SNOs between METOP-B and NOAA-19 Satellite Orbit:

Table of predicted SNOs for the next 14.0 days since TLE Epoch: 7/18/2020
Index Date (METOP-B) Time (METOP-B) Lat,Lon (METOP-B) SZA (METOP-B ) Date (NOAA-19) Time (NOAA-19) Lat,Lon (NOAA-19) SZA (NOAA-19 ) Distance(km) Time Diff (sec)
1 07/24/2020 20:54:28 80.10,-110.43 61.18 07/24/2020 20:53:24 80.10,-110.54 61.15 2.24 64
2 07/24/2020 21:45:10 -80.08, 56.64 118.86 07/24/2020 21:44:29 -80.10, 56.70 118.85 2.60 41
3 07/24/2020 22:35:50 80.09,-135.90 61.17 07/24/2020 22:35:24 80.09,-135.87 61.16 0.75 26
4 07/24/2020 23:26:31 -80.10, 31.47 118.82 07/24/2020 23:26:29 -80.09, 31.38 118.83 1.93 2
5 07/25/2020 00:17:12 80.08,-161.38 61.16 07/25/2020 00:17:25 80.10,-161.51 61.18 3.39 13
6 07/25/2020 01:07:53 -80.08, 6.00 118.83 07/25/2020 01:08:29 -80.08, 6.05 118.82 1.33 36
7 07/25/2020 01:58:34 80.07, 173.14 61.16 07/25/2020 01:59:25 80.09, 173.17 61.19 2.49 51
